Tracking 20040 objects as of 18-Nov-2019
Live streaming from Space Station
objects crossing your sky now

OSCAR 5

Track OSCAR 5 now!
10-day predictions
OSCAR 5 is classified as:


NORAD ID: 4321
Int'l Code: 1970-008B
Perigee: 1,441.0 km
Apogee: 1,484.2 km
Inclination: 101.6 °
Period: 115.0 minutes
Semi major axis: 7833 km
RCS: 0.3365 m2 (medium)
Launch date: January 23, 1970
Source: Australia (AUS)
Launch site: AIR FORCE WESTERN TEST RANGE (AFWTR)

Uplink (MHz):
Downlink (MHz): 29.450
Beacon (MHz): 144.050
Mode: CW
Call sign:
Status: Inactive

aabbcc
Your satellite tracking list
Your tracking list is empty




NASA's NSSDC Master Catalog

Two Line Element Set (TLE):
1  4321U 70008B   19322.38060562 -.00000045  00000-0 -81799-5 0  9992
2  4321 101.6281  23.6823 0027522 264.7292 229.4015 12.52164277277157
Source of the keplerian elements: AFSPC